Theta_e
341 341 341 340 342 344 344 343 341 341 340 340 340 339 339 338 337 336 336 343 347 348 350 352 356 357 355 354 352 351 350 349 348 347 347 345 343 345 343 341 343 345 342
338 340 339 340 342 343 343 342 341 339 338 338 338 340 339 339 337 341 342 343 345 347 349 351 352 355 355 354 351 350 349 347 347 346 345 344 344 343 343 345 347 344 342
337 339 339 338 340 342 342 341 340 340 339 339 339 339 339 342 343 343 344 344 343 343 346 349 352 352 353 352 351 351 349 347 347 347 344 344 344 344 346 345 343 342 341
337 338 339 339 340 341 341 340 340 339 339 338 338 341 342 341 341 341 341 340 340 340 341 343 346 349 349 349 351 350 348 348 347 347 346 344 345 345 343 342 342 341 340
338 337 339 341 342 343 344 341 339 339 338 339 340 340 340 338 339 338 337 336 338 340 340 340 341 344 346 348 350 351 350 349 348 347 346 346 345 343 342 341 341 340 340
341 339 343 345 343 343 341 341 340 340 339 337 336 335 334 334 333 332 332 333 335 338 338 339 340 341 344 346 347 348 347 348 347 347 347 345 343 343 342 341 340 340 340
344 342 344 343 341 340 340 340 337 335 334 334 330 330 328 328 329 330 332 333 333 332 332 333 332 332 332 336 340 339 341 344 347 346 346 344 344 344 343 341 340 340 339
345 343 345 341 340 340 339 336 336 334 331 331 328 322 318 323 328 331 332 331 329 328 329 330 330 330 329 327 329 331 333 334 335 340 342 342 343 344 343 342 341 340 339
346 344 343 337 333 338 336 335 335 332 329 330 329 325 319 315 321 328 329 327 327 327 328 327 328 326 327 326 324 327 329 331 333 335 336 338 341 343 344 342 341 340 340
344 339 340 337 339 337 334 334 333 331 330 326 327 329 327 324 319 319 327 327 328 327 327 326 324 325 324 323 324 325 328 328 327 327 327 328 329 333 337 340 340 339 339
340 340 340 338 336 335 333 331 330 329 331 330 329 329 328 327 324 320 315 320 325 326 325 322 323 322 322 321 321 323 327 327 326 324 323 323 324 325 327 328 335 340 340
334 337 335 332 330 328 325 322 322 321 323 321 324 323 323 322 321 318 315 314 313 317 318 319 319 319 319 319 321 322 323 324 323 322 322 322 321 322 324 326 327 329 337
329 329 327 326 323 322 319 317 316 316 315 314 312 314 315 314 313 313 311 309 308 309 312 316 316 315 316 316 317 319 321 320 320 319 319 320 321 321 322 324 325 327 329
327 325 321 318 317 315 313 311 310 310 309 309 308 308 309 309 309 309 308 306 302 305 308 309 313 314 315 315 317 318 317 318 317 317 317 318 320 320 321 322 323 327 327
318 315 314 311 309 309 308 306 305 305 305 305 305 305 305 307 307 308 308 307 305 299 301 308 308 313 314 314 315 316 315 316 317 316 316 316 317 318 319 320 321 321 323
313 311 309 307 305 305 304 304 303 304 303 303 304 305 305 306 307 308 307 307 307 303 300 305 308 310 311 311 312 313 313 314 314 314 316 316 315 316 317 317 318 319 320
311 307 306 304 304 303 303 303 303 303 303 303 304 304 306 307 306 306 306 305 305 305 299 303 305 307 307 307 309 310 311 311 311 313 314 314 314 314 314 314 315 316 318
306 305 304 303 302 301 301 301 301 302 302 302 303 304 305 306 304 303 302 301 300 300 298 296 300 302 303 305 307 307 307 309 309 311 313 313 311 311 311 311 311 312 313
303 302 302 301 300 300 300 300 301 301 301 302 303 304 304 301 300 299 299 298 298 298 297 296 295 299 301 303 303 305 306 306 308 310 310 310 310 310 310 310 310 310 310
301 300 300 299 299 298 299 300 300 300 300 301 302 301 300 300 300 299 298 298 298 296 297 296 295 296 298 300 301 300 300 304 304 307 308 308 309 310 309 310 311 312 310
300 300 298 298 298 298 299 300 298 299 299 298 299 298 299 301 301 300 298 297 297 296 295 294 294 294 295 296 296 299 298 300 301 305 305 306 308 308 308 308 310 311 310
299 298 297 296 295 296 297 300 298 297 298 297 296 297 299 299 298 299 299 299 299 296 295 294 294 293 294 295 297 297 297 296 296 305 303 302 306 305 307 309 308 307 306
298 297 296 295 293 294 295 296 298 296 297 297 296 296 296 297 297 296 297 298 298 298 299 297 294 294 294 296 297 297 298 298 298 302 302 300 304 302 306 308 306 304 304
296 295 294 294 293 294 294 294 295 295 295 297 297 296 295 295 295 295 295 296 297 298 299 298 297 298 299 300 300 302 301 301 303 304 304 299 303 302 307 308 306 306 304
296 295 293 293 292 292 293 293 294 293 294 295 297 296 294 293 293 293 293 294 295 297 298 299 299 298 297 298 300 305 302 300 299 302 305 302 302 304 307 307 308 306 304
293 293 292 292 293 292 293 293 294 293 293 293 296 294 294 292 291 291 293 292 291 293 294 296 298 299 301 302 303 306 304 301 300 300 305 300 303 304 302 309 308 307 305
Wind_Speed
6 4 3 3 3 2 3 4 4 4 5 6 5 5 7 7 7 4 4 12 12 12 14 12 9 10 10 12 12 12 12 12 12 13 15 13 11 13 11 6 9 15 15
5 5 4 4 4 4 3 3 4 4 5 5 6 5 7 6 6 6 4 4 10 11 12 12 14 13 13 13 10 13 13 13 12 13 15 15 12 10 11 12 12 11 11
5 4 2 3 3 3 4 4 4 4 5 4 6 5 5 5 6 6 5 5 7 13 14 13 14 16 17 15 14 16 17 18 15 16 16 18 13 13 11 12 13 13 14
6 5 4 4 3 3 3 3 3 4 3 4 3 4 4 4 6 8 6 5 5 6 10 16 16 15 16 19 20 20 18 17 15 16 16 16 14 13 14 15 16 17 14
8 6 5 3 4 3 2 1 1 3 2 3 4 4 5 6 7 6 7 6 5 6 5 11 15 16 17 18 20 18 18 18 16 14 15 15 15 15 16 17 18 17 16
5 3 1 2 3 1 3 3 2 2 2 3 4 5 5 5 5 5 5 5 4 5 5 6 5 6 14 15 15 17 18 17 14 14 15 15 16 17 17 19 19 18 18
5 5 2 2 1 3 4 3 1 2 2 2 3 3 3 4 4 4 4 5 6 4 4 4 4 4 4 11 11 12 13 13 15 18 14 15 16 18 19 19 19 18 19
6 4 4 5 3 3 4 3 0 1 2 1 2 1 5 5 4 4 3 4 5 4 6 7 7 7 5 5 8 13 16 16 14 17 16 13 14 18 20 21 21 21 21
3 6 6 8 11 5 5 2 2 1 2 2 1 1 2 3 5 1 3 4 4 4 6 5 5 7 7 6 8 10 14 15 14 14 15 16 16 17 20 20 20 21 21
7 6 9 9 8 1 2 4 3 3 1 2 2 1 3 3 3 5 3 3 4 7 6 7 7 8 6 6 11 15 13 12 14 15 16 16 17 17 17 18 21 21 22
7 7 8 8 4 3 2 7 5 5 2 1 1 2 3 3 3 3 8 5 8 6 7 6 7 6 7 7 7 8 11 13 14 16 20 21 20 20 19 18 16 17 19
6 7 9 9 4 4 7 7 6 5 4 3 3 4 3 3 3 4 5 9 10 7 8 8 6 7 7 8 10 16 16 14 14 14 15 18 20 21 21 19 19 18 19
3 4 9 5 4 5 8 6 6 7 6 4 4 3 3 3 3 3 6 8 7 7 5 6 8 9 9 7 10 19 20 17 15 14 16 17 19 20 21 21 21 19 16
4 7 6 6 7 9 7 7 6 5 4 3 3 3 2 3 3 3 4 7 10 7 7 10 8 7 8 11 17 24 13 19 18 17 17 18 19 20 20 20 20 19 17
7 7 7 7 8 8 7 7 6 3 1 1 5 4 3 4 5 4 3 4 5 11 13 8 8 11 9 11 15 16 15 20 22 22 20 19 18 19 19 20 18 17 17
9 7 7 8 8 8 8 6 2 3 3 3 4 7 6 5 6 5 5 6 6 7 9 11 10 13 11 11 16 16 15 23 20 20 19 18 17 17 17 18 17 19 19
7 9 8 9 9 9 5 1 3 6 6 7 7 8 8 7 6 6 5 7 7 7 11 11 11 12 14 12 13 12 13 12 11 20 21 18 17 13 11 13 14 18 18
8 9 9 8 7 6 6 9 8 7 8 8 8 9 9 7 6 7 8 10 9 10 9 15 13 11 14 13 13 13 12 10 11 18 21 20 19 13 11 13 16 13 13
10 9 8 9 10 11 10 8 6 8 8 8 8 8 9 10 10 10 10 10 9 8 9 9 11 10 11 10 13 11 10 11 11 19 19 20 18 16 15 15 17 15 13
10 9 9 9 10 8 8 6 7 7 6 8 10 10 9 10 10 12 11 11 10 10 9 8 9 10 9 12 10 9 9 9 11 12 15 15 17 16 16 16 16 15 13
9 8 9 10 8 9 8 8 7 7 9 10 10 9 7 10 15 14 9 10 11 9 8 8 8 9 9 10 10 9 10 10 10 10 9 9 8 9 10 12 15 14 9
9 9 9 9 9 8 13 13 8 7 9 9 9 9 9 12 15 18 18 16 13 9 10 7 8 9 12 11 9 10 10 9 7 3 8 10 8 10 9 8 10 9 7
7 8 8 9 10 9 16 14 14 8 8 8 9 8 9 9 13 14 16 15 13 14 12 10 11 11 12 14 13 12 11 10 9 9 8 7 5 8 7 7 8 9 8
8 7 8 8 8 9 17 16 13 9 7 7 7 8 11 12 13 16 15 13 13 11 10 9 10 12 11 13 11 9 7 8 9 7 3 4 6 8 6 4 7 7 7
7 8 8 9 9 9 17 16 10 8 8 8 7 8 11 12 19 21 14 15 15 14 17 20 17 17 16 16 14 8 6 7 6 4 2 4 3 6 2 2 2 8 9
7 7 8 9 13 9 15 14 10 5 8 8 7 9 13 17 20 20 13 14 15 14 14 16 15 16 16 15 17 9 7 7 6 4 3 7 4 4 4 2 3 6 7
Wind_Direction
184 178 194 202 209 198 216 230 238 252 261 267 269 273 281 279 274 269 273 288 293 297 302 294 260 246 232 239 243 253 253 250 246 242 234 220 209 226 232 249 256 234 220
177 183 193 206 213 203 216 240 252 260 275 278 282 263 269 271 264 253 256 287 300 303 301 284 270 253 242 248 255 268 264 256 248 254 239 249 261 264 261 257 231 196 200
177 166 175 223 226 205 225 231 232 232 258 264 271 285 274 263 265 272 278 281 286 279 278 274 268 268 262 263 289 261 262 256 253 248 249 256 244 240 230 208 205 205 208
178 173 188 219 213 226 231 233 244 266 260 261 274 279 271 269 266 261 267 275 286 287 291 289 289 293 286 288 280 273 267 266 256 259 250 256 243 226 214 213 214 212 208
183 176 195 214 212 231 266 254 324 257 234 237 252 265 270 270 272 283 282 285 294 306 299 296 300 298 290 284 284 275 273 267 263 244 243 242 234 229 223 221 220 217 211
157 145 266 272 292 90 14 308 217 253 325 308 293 281 273 270 264 265 273 283 306 309 316 306 308 309 305 309 308 303 302 291 273 253 242 237 234 234 231 231 228 223 217
150 173 170 234 304 51 252 295 22 350 297 313 302 292 291 299 303 295 284 299 310 312 341 3 2 343 340 329 321 327 318 307 332 308 268 232 229 234 237 235 232 227 224
165 187 117 99 49 8 341 282 72 339 289 313 336 34 346 329 341 313 314 298 318 337 6 353 347 351 344 335 323 332 336 346 323 305 302 282 250 240 236 234 232 225 221
137 126 101 69 72 271 239 282 56 245 334 360 325 99 331 264 326 297 309 304 337 350 338 338 339 333 327 326 337 336 336 334 328 329 329 324 313 300 265 243 234 232 225
81 76 91 93 227 47 286 69 50 52 40 360 333 44 239 245 270 293 321 326 312 324 322 332 328 322 331 332 333 324 326 349 353 354 349 345 341 331 316 297 248 234 228
67 102 138 119 146 120 108 73 57 40 13 359 329 291 251 239 237 275 297 303 307 319 317 324 311 319 328 328 325 314 333 328 330 330 327 324 321 316 315 316 313 263 235
16 15 61 65 63 64 65 68 65 59 49 36 5 5 346 335 358 320 298 317 301 291 320 308 320 323 322 315 320 322 314 303 302 305 306 304 306 303 300 298 297 301 254
73 21 58 46 47 71 60 62 65 60 38 35 15 350 354 10 323 316 315 317 300 302 292 314 319 313 317 324 319 317 311 304 291 291 293 291 296 296 294 291 285 279 269
74 52 53 57 53 63 64 60 53 46 30 19 8 12 338 341 1 16 319 319 314 300 307 311 298 318 320 316 312 314 312 306 299 294 286 283 285 287 289 290 288 280 272
90 82 69 72 63 63 59 60 54 39 299 355 24 13 8 352 5 354 329 325 306 316 319 325 330 307 306 312 304 307 303 301 301 299 294 291 288 285 282 284 282 283 274
91 101 110 82 69 59 49 47 47 14 37 20 22 22 16 359 353 355 353 322 316 299 299 315 307 308 304 304 303 307 303 302 302 295 290 287 285 284 279 279 277 279 273
101 86 76 70 55 46 35 75 65 32 34 28 21 18 9 359 360 6 326 321 305 307 295 308 311 310 312 315 306 307 304 306 306 308 307 305 294 284 286 284 284 279 269
96 89 78 80 80 63 45 43 38 21 29 21 14 13 9 13 11 340 332 321 325 322 311 305 307 312 313 314 309 309 311 306 304 302 304 307 300 289 294 290 286 275 267
80 77 80 70 55 43 38 33 30 32 25 19 17 18 28 9 358 342 337 334 324 313 307 299 302 308 308 315 316 313 310 312 309 312 303 296 294 295 291 285 281 278 257
81 73 65 66 59 50 40 29 38 36 29 31 28 20 20 10 350 336 336 327 320 313 309 307 310 311 317 315 303 312 304 309 310 311 302 289 287 283 285 283 278 275 260
84 80 76 62 56 47 31 35 41 37 37 32 26 18 2 5 355 348 333 323 318 316 318 318 315 311 311 318 316 312 303 308 302 285 295 301 297 300 300 291 280 272 264
69 69 69 68 56 49 32 40 47 43 38 32 22 8 5 4 352 342 337 337 333 321 314 314 310 305 308 309 306 306 307 311 318 287 317 302 299 297 294 294 288 295 296
77 70 64 61 54 38 29 26 36 36 33 22 23 9 8 359 352 342 334 335 339 339 335 320 302 306 304 302 300 301 306 308 309 305 316 298 311 293 298 297 285 294 291
72 69 57 53 53 36 28 24 25 29 27 24 21 14 10 355 356 348 335 342 347 337 346 328 311 303 299 299 301 297 289 295 299 294 327 285 309 306 318 349 9 10 349
66 63 56 49 45 35 21 20 21 23 25 23 16 20 15 3 353 351 349 347 342 347 346 337 329 312 307 311 324 329 331 326 325 306 324 295 310 314 318 350 9 356 345
64 65 58 44 42 33 17 15 22 21 25 24 15 14 13 8 356 353 357 350 345 344 334 333 339 341 344 339 339 344 319 321 327 307 357 326 309 330 321 19 27 17 2